PLEIADES 1B

Last updated on Thu Oct 30 2025 00:02:31 GMT+0000 (Coordinated Universal Time)

1 39019U 12068A 25302.50957652 .00000536 00000+0 12515-3 0 9990 2 39019 98.1838 15.8484 0001390 95.7214 264.4144 14.58548149687221
UTC large
Height (km)
Speed (km/s)
/
Latitude / Longitude
Inclination (degrees)
Orbital Period (minutes)
Azimuth
Elevation
Range (km)
Doppler Factor

Next 0 passes for location: London (51.5072 / 0.1276)

Sorry there are no passes over London.